• En España
  • Lista de países
  • Para 7 días
  • Temperatura del agua
  • Mapa Satelital
  • El tiempo en el mapa
  • Informadores
  • user-avatar
    Iniciar sesión

    Tiempo cada hora Bolshoe Minino

    Hoy, 23 Julio, Lunes

    Tiempo Temperatura Precipitaciones Viento Presión Humedad
    00:00 +18°C° 0 mm 4 mps 731 mmHg 96%
    01:00 +18°C° 0 mm 4 mps 731 mmHg 96%
    02:00 +18°C° 0 mm 4 mps 731 mmHg 97%
    03:00 +18°C° 0 mm 4 mps 731 mmHg 96%
    04:00 +18°C° 0 mm 4 mps 731 mmHg 96%
    05:00 +17°C° 0 mm 5 mps 731 mmHg 95%
    06:00 +17°C° 0 mm 5 mps 731 mmHg 94%
    07:00 +17°C° 0 mm 5 mps 731 mmHg 94%
    08:00 +19°C° 0 mm 5 mps 731 mmHg 93%
    09:00 +19°C° 0 mm 5 mps 731 mmHg 92%
    10:00 +19°C° 0 mm 5 mps 731 mmHg 91%
    11:00 +19°C° 0 mm 5 mps 731 mmHg 90%
    12:00 +19°C° 0 mm 5 mps 731 mmHg 89%
    13:00 +20°C° 0 mm 5 mps 732 mmHg 88%
    14:00 +20°C° 0 mm 5 mps 732 mmHg 87%
    15:00 +20°C° 0 mm 5 mps 732 mmHg 88%
    16:00 +20°C° 0 mm 5 mps 732 mmHg 88%
    17:00 +21°C° 0 mm 5 mps 732 mmHg 88%
    18:00 +20°C° 0,6 mm 5 mps 732 mmHg 89%
    19:00 +20°C° 0,6 mm 5 mps 732 mmHg 91%
    20:00 +19°C° 0,6 mm 5 mps 732 mmHg 92%
    21:00 +19°C° 0,9 mm 5 mps 732 mmHg 93%
    22:00 +19°C° 0,9 mm 4 mps 732 mmHg 95%
    23:00 +18°C° 0,9 mm 4 mps 732 mmHg 96%

    Mañana, 24 Julio, Martes

    Tiempo Temperatura Precipitaciones Viento Presión Humedad
    00:00 +18°C° 0,2 mm 4 mps 732 mmHg 96%
    01:00 +18°C° 0,2 mm 4 mps 732 mmHg 96%
    02:00 +18°C° 0,2 mm 4 mps 732 mmHg 97%
    03:00 +18°C° 0 mm 4 mps 732 mmHg 97%
    04:00 +18°C° 0 mm 4 mps 732 mmHg 96%
    05:00 +18°C° 0 mm 3 mps 732 mmHg 96%
    06:00 +19°C° 0 mm 3 mps 733 mmHg 95%
    07:00 +19°C° 0 mm 3 mps 733 mmHg 94%
    08:00 +20°C° 0 mm 3 mps 733 mmHg 93%
    09:00 +20°C° 0 mm 3 mps 733 mmHg 90%
    10:00 +21°C° 0 mm 3 mps 733 mmHg 88%
    11:00 +22°C° 0 mm 3 mps 734 mmHg 86%
    12:00 +24°C° 0,2 mm 3 mps 734 mmHg 84%
    13:00 +24°C° 0,2 mm 3 mps 734 mmHg 82%
    14:00 +25°C° 0,2 mm 3 mps 734 mmHg 80%
    15:00 +25°C° 0,5 mm 3 mps 734 mmHg 81%
    16:00 +25°C° 0,5 mm 3 mps 734 mmHg 82%
    17:00 +25°C° 0,5 mm 3 mps 734 mmHg 83%
    18:00 +24°C° 0,3 mm 3 mps 734 mmHg 86%
    19:00 +22°C° 0,3 mm 3 mps 734 mmHg 90%
    20:00 +21°C° 0,3 mm 3 mps 735 mmHg 93%
    21:00 +20°C° 0 mm 3 mps 735 mmHg 94%
    22:00 +20°C° 0 mm 3 mps 735 mmHg 94%
    23:00 +19°C° 0 mm 3 mps 735 mmHg 95%

    Pasado mañana, 25 Julio, Miércoles

    Tiempo Temperatura Precipitaciones Viento Presión Humedad
    00:00 +19°C° 0,1 mm 3 mps 735 mmHg 96%
    01:00 +19°C° 0,1 mm 3 mps 735 mmHg 96%
    02:00 +19°C° 0,1 mm 4 mps 735 mmHg 97%
    03:00 +19°C° 0,1 mm 4 mps 736 mmHg 96%
    04:00 +19°C° 0,1 mm 4 mps 736 mmHg 95%
    05:00 +19°C° 0,1 mm 4 mps 736 mmHg 94%
    06:00 +19°C° 0 mm 4 mps 736 mmHg 90%
    07:00 +19°C° 0 mm 4 mps 736 mmHg 87%
    08:00 +20°C° 0 mm 4 mps 737 mmHg 83%
    09:00 +20°C° 0 mm 5 mps 737 mmHg 78%
    10:00 +21°C° 0 mm 5 mps 737 mmHg 74%
    11:00 +21°C° 0 mm 5 mps 737 mmHg 69%
    12:00 +21°C° 0 mm 5 mps 737 mmHg 71%
    13:00 +21°C° 0 mm 5 mps 737 mmHg 72%
    14:00 +21°C° 0 mm 5 mps 737 mmHg 73%
    15:00 +20°C° 0,1 mm 4 mps 737 mmHg 77%
    16:00 +20°C° 0,1 mm 4 mps 736 mmHg 81%
    17:00 +19°C° 0,1 mm 3 mps 736 mmHg 85%
    18:00 +19°C° 0 mm 3 mps 736 mmHg 87%
    19:00 +18°C° 0 mm 3 mps 736 mmHg 90%
    20:00 +17°C° 0 mm 2 mps 736 mmHg 92%
    21:00 +17°C° 0 mm 2 mps 737 mmHg 94%
    22:00 +16°C° 0 mm 2 mps 737 mmHg 96%
    23:00 +16°C° 0 mm 2 mps 737 mmHg 97%

    26 Julio, Jueves

    Tiempo Temperatura Precipitaciones Viento Presión Humedad
    00:00 +16°C° 0 mm 2 mps 737 mmHg 97%
    01:00 +16°C° 0 mm 2 mps 737 mmHg 97%
    02:00 +17°C° 0 mm 2 mps 736 mmHg 97%
    03:00 +17°C° 0 mm 2 mps 737 mmHg 96%
    04:00 +17°C° 0 mm 2 mps 737 mmHg 96%
    05:00 +17°C° 0 mm 2 mps 737 mmHg 95%
    06:00 +19°C° 0 mm 2 mps 737 mmHg 91%
    07:00 +20°C° 0 mm 3 mps 737 mmHg 87%
    08:00 +21°C° 0 mm 3 mps 737 mmHg 82%
    09:00 +22°C° 0 mm 3 mps 737 mmHg 80%
    10:00 +24°C° 0 mm 3 mps 738 mmHg 77%
    11:00 +26°C° 0 mm 4 mps 738 mmHg 74%
    12:00 +26°C° 0 mm 4 mps 738 mmHg 72%
    13:00 +27°C° 0 mm 4 mps 738 mmHg 71%
    14:00 +28°C° 0 mm 4 mps 738 mmHg 70%
    15:00 +28°C° 0 mm 4 mps 738 mmHg 72%
    16:00 +28°C° 0 mm 4 mps 738 mmHg 74%
    17:00 +27°C° 0 mm 4 mps 738 mmHg 76%
    18:00 +26°C° 0 mm 4 mps 738 mmHg 79%
    19:00 +25°C° 0 mm 4 mps 738 mmHg 83%
    20:00 +23°C° 0 mm 4 mps 738 mmHg 86%
    21:00 +22°C° 0,1 mm 4 mps 738 mmHg 87%
    22:00 +22°C° 0,1 mm 4 mps 738 mmHg 88%
    23:00 +21°C° 0,1 mm 3 mps 738 mmHg 89%

    27 Julio, Viernes

    Tiempo Temperatura Precipitaciones Viento Presión Humedad
    00:00 +21°C° 0 mm 3 mps 738 mmHg 89%
    01:00 +20°C° 0 mm 3 mps 738 mmHg 89%
    02:00 +20°C° 0 mm 3 mps 738 mmHg 89%
    03:00 +20°C° 0 mm 3 mps 738 mmHg 89%
    04:00 +20°C° 0 mm 3 mps 739 mmHg 88%
    05:00 +19°C° 0 mm 3 mps 739 mmHg 88%
    06:00 +21°C° 0 mm 4 mps 739 mmHg 84%
    07:00 +22°C° 0 mm 4 mps 739 mmHg 79%
    08:00 +25°C° 0 mm 4 mps 739 mmHg 75%
    09:00 +26°C° 0 mm 4 mps 740 mmHg 71%
    10:00 +27°C° 0 mm 5 mps 740 mmHg 66%
    11:00 +29°C° 0 mm 5 mps 740 mmHg 62%
    12:00 +29°C° 0 mm 5 mps 740 mmHg 61%
    13:00 +29°C° 0 mm 5 mps 740 mmHg 60%
    14:00 +30°C° 0 mm 5 mps 739 mmHg 60%
    15:00 +29°C° 0,4 mm 4 mps 739 mmHg 64%
    16:00 +28°C° 0,4 mm 4 mps 739 mmHg 69%
    17:00 +28°C° 0,4 mm 3 mps 739 mmHg 74%
    18:00 +26°C° 0,1 mm 3 mps 739 mmHg 77%
    19:00 +25°C° 0,1 mm 3 mps 739 mmHg 81%
    20:00 +22°C° 0,1 mm 3 mps 740 mmHg 84%
    21:00 +21°C° 0 mm 3 mps 739 mmHg 86%
    22:00 +21°C° 0 mm 3 mps 739 mmHg 87%
    23:00 +20°C° 0 mm 3 mps 739 mmHg 89%

    28 Julio, Sábado

    Tiempo Temperatura Precipitaciones Viento Presión Humedad
    00:00 +20°C° 0 mm 3 mps 739 mmHg 90%
    01:00 +19°C° 0 mm 3 mps 739 mmHg 91%
    02:00 +19°C° 0 mm 3 mps 739 mmHg 92%
    03:00 +19°C° 0 mm 3 mps 739 mmHg 90%
    04:00 +19°C° 0 mm 3 mps 739 mmHg 89%
    05:00 +19°C° 0 mm 3 mps 739 mmHg 88%
    06:00 +21°C° 0,1 mm 3 mps 739 mmHg 84%
    07:00 +22°C° 0,1 mm 4 mps 739 mmHg 81%
    08:00 +23°C° 0,1 mm 4 mps 739 mmHg 77%
    09:00 +25°C° 0,2 mm 4 mps 739 mmHg 73%
    10:00 +26°C° 0,2 mm 4 mps 739 mmHg 68%
    11:00 +27°C° 0,2 mm 5 mps 739 mmHg 64%
    12:00 +28°C° 0 mm 4 mps 739 mmHg 62%
    13:00 +28°C° 0 mm 4 mps 739 mmHg 61%
    14:00 +28°C° 0 mm 3 mps 739 mmHg 60%
    15:00 +28°C° 0,1 mm 3 mps 739 mmHg 64%
    16:00 +27°C° 0,1 mm 3 mps 738 mmHg 69%
    17:00 +26°C° 0,1 mm 2 mps 738 mmHg 73%
    18:00 +25°C° 0,1 mm 2 mps 738 mmHg 74%
    19:00 +24°C° 0,1 mm 2 mps 738 mmHg 74%
    20:00 +24°C° 0,1 mm 2 mps 739 mmHg 74%
    21:00 +23°C° 0 mm 2 mps 739 mmHg 76%
    22:00 +23°C° 0 mm 2 mps 738 mmHg 77%
    23:00 +21°C° 0 mm 2 mps 738 mmHg 79%
    Mostrar más